• En España
  • Lista de países
  • Para 7 días
  • Temperatura del agua
  • Mapa Satelital
  • El tiempo en el mapa
  • Informadores
  • user-avatar
    Iniciar sesión

    Tiempo cada hora Malaya Lapushka

    Hoy, 21 Agosto, Martes

    Tiempo Temperatura Precipitaciones Viento Presión Humedad
    00:00 +17°C° 0 mm 4 mps 736 mmHg 90%
    01:00 +17°C° 0 mm 4 mps 735 mmHg 90%
    02:00 +18°C° 0 mm 4 mps 734 mmHg 91%
    03:00 +18°C° 1 mm 4 mps 734 mmHg 92%
    04:00 +18°C° 1 mm 4 mps 733 mmHg 94%
    05:00 +18°C° 1 mm 4 mps 733 mmHg 95%
    06:00 +17°C° 0,5 mm 5 mps 733 mmHg 94%
    07:00 +17°C° 0,5 mm 5 mps 733 mmHg 94%
    08:00 +16°C° 0 mm 5 mps 733 mmHg 93%
    09:00 +17°C° 0,2 mm 5 mps 733 mmHg 86%
    10:00 +17°C° 0,2 mm 6 mps 734 mmHg 79%
    11:00 +19°C° 0,2 mm 6 mps 734 mmHg 72%
    12:00 +19°C° 0 mm 6 mps 735 mmHg 66%
    13:00 +19°C° 0 mm 6 mps 735 mmHg 59%
    14:00 +20°C° 0 mm 6 mps 735 mmHg 52%
    15:00 +19°C° 0 mm 6 mps 736 mmHg 54%
    16:00 +19°C° 0 mm 5 mps 736 mmHg 55%
    17:00 +17°C° 0 mm 5 mps 736 mmHg 57%
    18:00 +15°C° 0 mm 4 mps 737 mmHg 63%
    19:00 +14°C° 0 mm 3 mps 737 mmHg 70%
    20:00 +13°C° 0 mm 2 mps 737 mmHg 76%
    21:00 +11°C° 0 mm 3 mps 738 mmHg 78%
    22:00 +11°C° 0 mm 3 mps 738 mmHg 80%
    23:00 +11°C° 0 mm 3 mps 738 mmHg 81%

    Mañana, 22 Agosto, Miércoles

    Tiempo Temperatura Precipitaciones Viento Presión Humedad
    00:00 +10°C° 0 mm 3 mps 739 mmHg 82%
    01:00 +10°C° 0 mm 3 mps 739 mmHg 83%
    02:00 +10°C° 0 mm 3 mps 739 mmHg 83%
    03:00 +9°C° 0 mm 3 mps 740 mmHg 85%
    04:00 +9°C° 0 mm 3 mps 740 mmHg 86%
    05:00 +9°C° 0 mm 3 mps 741 mmHg 87%
    06:00 +10°C° 0 mm 4 mps 741 mmHg 81%
    07:00 +12°C° 0 mm 4 mps 742 mmHg 74%
    08:00 +13°C° 0 mm 5 mps 742 mmHg 67%
    09:00 +14°C° 0 mm 5 mps 742 mmHg 61%
    10:00 +15°C° 0 mm 5 mps 743 mmHg 55%
    11:00 +16°C° 0 mm 5 mps 743 mmHg 50%
    12:00 +16°C° 0 mm 5 mps 743 mmHg 48%
    13:00 +17°C° 0 mm 5 mps 743 mmHg 47%
    14:00 +17°C° 0 mm 5 mps 744 mmHg 45%
    15:00 +18°C° 0 mm 4 mps 744 mmHg 48%
    16:00 +17°C° 0 mm 4 mps 744 mmHg 50%
    17:00 +17°C° 0 mm 4 mps 744 mmHg 53%
    18:00 +14°C° 0 mm 3 mps 745 mmHg 60%
    19:00 +13°C° 0 mm 2 mps 745 mmHg 68%
    20:00 +10°C° 0 mm 2 mps 745 mmHg 76%
    21:00 +10°C° 0 mm 2 mps 746 mmHg 78%
    22:00 +9°C° 0 mm 2 mps 746 mmHg 80%
    23:00 +8°C° 0 mm 2 mps 746 mmHg 83%

    Pasado mañana, 23 Agosto, Jueves

    Tiempo Temperatura Precipitaciones Viento Presión Humedad
    00:00 +8°C° 0 mm 2 mps 746 mmHg 83%
    01:00 +8°C° 0 mm 2 mps 747 mmHg 84%
    02:00 +9°C° 0 mm 1 mps 747 mmHg 85%
    03:00 +7°C° 0 mm 2 mps 747 mmHg 86%
    04:00 +7°C° 0 mm 2 mps 747 mmHg 86%
    05:00 +7°C° 0 mm 2 mps 747 mmHg 87%
    06:00 +9°C° 0 mm 2 mps 747 mmHg 79%
    07:00 +12°C° 0 mm 2 mps 747 mmHg 72%
    08:00 +15°C° 0 mm 2 mps 747 mmHg 64%
    09:00 +16°C° 0 mm 3 mps 747 mmHg 59%
    10:00 +18°C° 0 mm 3 mps 747 mmHg 54%
    11:00 +19°C° 0 mm 3 mps 747 mmHg 49%
    12:00 +20°C° 0 mm 3 mps 747 mmHg 48%
    13:00 +20°C° 0 mm 3 mps 746 mmHg 47%
    14:00 +21°C° 0 mm 3 mps 746 mmHg 46%
    15:00 +21°C° 0 mm 3 mps 746 mmHg 49%
    16:00 +20°C° 0 mm 3 mps 745 mmHg 53%
    17:00 +20°C° 0 mm 2 mps 745 mmHg 57%
    18:00 +18°C° 0 mm 2 mps 745 mmHg 64%
    19:00 +16°C° 0 mm 2 mps 745 mmHg 72%
    20:00 +14°C° 0 mm 2 mps 745 mmHg 79%
    21:00 +13°C° 0 mm 2 mps 745 mmHg 81%
    22:00 +12°C° 0 mm 2 mps 745 mmHg 84%
    23:00 +12°C° 0 mm 2 mps 745 mmHg 86%

    24 Agosto, Viernes

    Tiempo Temperatura Precipitaciones Viento Presión Humedad
    00:00 +10°C° 0 mm 2 mps 745 mmHg 88%
    01:00 +10°C° 0 mm 2 mps 745 mmHg 91%
    02:00 +10°C° 0 mm 2 mps 745 mmHg 93%
    03:00 +9°C° 0 mm 2 mps 745 mmHg 94%
    04:00 +9°C° 0 mm 2 mps 745 mmHg 95%
    05:00 +9°C° 0 mm 2 mps 745 mmHg 95%
    06:00 +12°C° 0 mm 2 mps 745 mmHg 87%
    07:00 +14°C° 0 mm 2 mps 745 mmHg 78%
    08:00 +16°C° 0 mm 2 mps 745 mmHg 69%
    09:00 +18°C° 0 mm 3 mps 745 mmHg 63%
    10:00 +19°C° 0 mm 3 mps 745 mmHg 56%
    11:00 +21°C° 0 mm 3 mps 744 mmHg 49%
    12:00 +22°C° 0 mm 3 mps 744 mmHg 48%
    13:00 +22°C° 0 mm 3 mps 744 mmHg 46%
    14:00 +24°C° 0 mm 3 mps 744 mmHg 45%
    15:00 +24°C° 0 mm 3 mps 743 mmHg 49%
    16:00 +23°C° 0 mm 2 mps 743 mmHg 54%
    17:00 +23°C° 0 mm 2 mps 743 mmHg 59%
    18:00 +19°C° 0 mm 2 mps 743 mmHg 66%
    19:00 +17°C° 0 mm 2 mps 743 mmHg 73%
    20:00 +15°C° 0 mm 2 mps 743 mmHg 80%
    21:00 +14°C° 0 mm 2 mps 743 mmHg 82%
    22:00 +14°C° 0 mm 2 mps 743 mmHg 84%
    23:00 +13°C° 0 mm 2 mps 743 mmHg 86%

    25 Agosto, Sábado

    Tiempo Temperatura Precipitaciones Viento Presión Humedad
    00:00 +13°C° 0 mm 2 mps 742 mmHg 87%
    01:00 +13°C° 0 mm 2 mps 742 mmHg 88%
    02:00 +13°C° 0 mm 2 mps 742 mmHg 89%
    03:00 +12°C° 0 mm 3 mps 742 mmHg 89%
    04:00 +11°C° 0 mm 3 mps 742 mmHg 88%
    05:00 +11°C° 0 mm 3 mps 742 mmHg 87%
    06:00 +13°C° 0 mm 3 mps 742 mmHg 80%
    07:00 +16°C° 0 mm 3 mps 742 mmHg 73%
    08:00 +18°C° 0 mm 4 mps 742 mmHg 65%
    09:00 +20°C° 0 mm 4 mps 742 mmHg 58%
    10:00 +21°C° 0 mm 5 mps 742 mmHg 52%
    11:00 +23°C° 0 mm 5 mps 742 mmHg 45%
    12:00 +25°C° 0 mm 5 mps 742 mmHg 44%
    13:00 +25°C° 0 mm 5 mps 741 mmHg 42%
    14:00 +26°C° 0 mm 5 mps 741 mmHg 41%
    15:00 +25°C° 0 mm 4 mps 741 mmHg 45%
    16:00 +25°C° 0 mm 4 mps 741 mmHg 50%
    17:00 +24°C° 0 mm 3 mps 741 mmHg 55%
    18:00 +21°C° 0 mm 3 mps 741 mmHg 60%
    19:00 +19°C° 0 mm 3 mps 741 mmHg 65%
    20:00 +18°C° 0 mm 3 mps 741 mmHg 70%
    21:00 +17°C° 0 mm 3 mps 741 mmHg 72%
    22:00 +17°C° 0 mm 3 mps 741 mmHg 73%
    23:00 +16°C° 0 mm 3 mps 741 mmHg 74%

    26 Agosto, Domingo

    Tiempo Temperatura Precipitaciones Viento Presión Humedad
    00:00 +16°C° 0 mm 3 mps 741 mmHg 75%
    01:00 +14°C° 0 mm 3 mps 741 mmHg 76%
    02:00 +14°C° 0 mm 3 mps 741 mmHg 77%
    03:00 +14°C° 0 mm 3 mps 742 mmHg 78%
    04:00 +13°C° 0 mm 3 mps 742 mmHg 80%
    05:00 +13°C° 0 mm 3 mps 742 mmHg 81%
    06:00 +16°C° 0 mm 3 mps 742 mmHg 76%
    07:00 +17°C° 0 mm 3 mps 742 mmHg 71%
    08:00 +19°C° 0 mm 3 mps 742 mmHg 65%
    09:00 +21°C° 0 mm 3 mps 742 mmHg 59%
    10:00 +23°C° 0 mm 4 mps 742 mmHg 53%
    11:00 +26°C° 0 mm 4 mps 742 mmHg 47%
    12:00 +26°C° 0 mm 4 mps 742 mmHg 44%
    13:00 +27°C° 0 mm 4 mps 742 mmHg 42%
    14:00 +28°C° 0 mm 4 mps 742 mmHg 40%
    15:00 +27°C° 0 mm 3 mps 742 mmHg 45%
    16:00 +26°C° 0 mm 3 mps 742 mmHg 50%
    17:00 +25°C° 0 mm 3 mps 742 mmHg 55%
    18:00 +22°C° 0 mm 3 mps 742 mmHg 60%
    19:00 +20°C° 0 mm 3 mps 742 mmHg 65%
    20:00 +18°C° 0 mm 3 mps 742 mmHg 71%
    21:00 +18°C° 0 mm 3 mps 742 mmHg 72%
    22:00 +17°C° 0 mm 3 mps 742 mmHg 72%
    23:00 +16°C° 0 mm 3 mps 742 mmHg 73%
    Mostrar más